Macomb, IL

10:08 PM CDT on October 20, 2019 (GMT -0500)
Macomb Municipal

Weather History for KMQB - September, 2019

Change the Weather History Date:

Monday, September 16, 2019

  Actual Average (KBRL) Record (KBRL)
Temperature  
Mean Temperature 74 °F -  
Max Temperature 85 °F 73 °F 95 °F (1906)
Min Temperature 62 °F 54 °F 39 °F (1984)
Cooling Degree Days 8    
Growing Degree Days 24 (Base 50)    
Moisture  
Dew Point 68 °F    
Average Humidity 89    
Maximum Humidity 100    
Minimum Humidity 57    
Precipitation  
Precipitation 0.00 in - - ()
Sea Level Pressure  
Sea Level Pressure 30.10 in    
Wind  
Wind Speed 3 mph (ENE)    
Max Wind Speed 9 mph    
Max Gust Speed -    
Visibility 6 miles    
Events Fog    
Averages and records for this station are not official NWS values.
T = Trace of Precipitation, MM = Missing Value Source: NWS Daily Summary

Daily Weather History Graph

Daily Weather History Graph

Search for Another Location

Airport or City:

Astronomy

Sep. 16, 2019 Rise Set
Actual Time 6:44 AM CDT 7:10 PM CDT
Civil Twilight 6:16 AM CDT 7:37 PM CDT
Nautical Twilight 5:44 AM CDT 8:09 PM CDT
Astronomical Twilight 5:11 AM CDT 8:42 PM CDT
Moon 8:44 PM CDT (9/16) 8:51 AM CDT (9/16)
Length of Visible Light 13h 20m
Length of Day
12h 26m
Waning Gibbous, 94% of the Moon is Illuminated
Sep 16
Waning Gibbous
Sep 21
Last Quarter
Sep 28
New
Oct 5
First Quarter
Oct 13
Full

Hourly Weather History & Observations

Time (CDT) Temp. Heat Index Dew Point Humidity Pressure Visibility Wind Dir Wind Speed Gust Speed Precip Events Conditions
12:15 AM 68.2 °F - 68.2 °F 100% 30.05 in 5.0 mi SSE 4.6 mph - N/A   Clear
12:35 AM 68.0 °F - 68.0 °F 100% 30.05 in 5.0 mi Calm Calm - N/A   Clear
12:55 AM 67.1 °F - 67.1 °F 100% 30.05 in 4.0 mi Calm Calm - N/A   Clear
1:15 AM 66.4 °F - 66.4 °F 100% 30.06 in 0.8 mi Calm Calm - N/A   Mist
1:35 AM 66.4 °F - 66.4 °F 100% 30.06 in 4.0 mi NNW 4.6 mph - N/A   Clear
1:55 AM 66.7 °F - 66.7 °F 100% 30.06 in 2.5 mi North 3.5 mph - N/A   Clear
2:15 AM 66.2 °F - 66.2 °F 100% 30.06 in 3.0 mi Calm Calm - N/A   Clear
2:35 AM 64.9 °F - 64.9 °F 100% 30.06 in 4.0 mi Calm Calm - N/A   Clear
2:55 AM 64.9 °F - 64.9 °F 100% 30.06 in 4.0 mi Calm Calm - N/A   Clear
3:15 AM 64.6 °F - 64.6 °F 100% 30.07 in 0.5 mi SSW 3.5 mph - N/A Fog Fog
3:35 AM 64.8 °F - 64.8 °F 100% 30.07 in 3.0 mi Calm Calm - N/A   Scattered Clouds
3:55 AM 64.8 °F - 64.8 °F 100% 30.07 in 0.8 mi Calm Calm - N/A   Mist
4:15 AM 64.6 °F - 64.6 °F 100% 30.08 in 3.0 mi Calm Calm - N/A   Clear
4:35 AM 64.4 °F - 64.4 °F 100% 30.08 in 4.0 mi Calm Calm - N/A   Scattered Clouds
4:55 AM 63.7 °F - 63.7 °F 100% 30.08 in 4.0 mi Calm Calm - N/A   Mostly Cloudy
5:15 AM 63.5 °F - 63.5 °F 100% 30.08 in 0.5 mi Calm Calm - N/A Fog Fog
5:35 AM 63.3 °F - 63.3 °F 100% 30.08 in 2.0 mi Calm Calm - N/A   Scattered Clouds
5:55 AM 63.5 °F - 63.5 °F 100% 30.09 in 0.2 mi Calm Calm - N/A Fog Fog
6:15 AM 63.1 °F - 63.1 °F 100% 30.09 in 0.5 mi Calm Calm - N/A Fog Fog
6:35 AM 62.6 °F - 62.6 °F 100% 30.10 in 2.0 mi Calm Calm - N/A   Mostly Cloudy
6:55 AM 62.8 °F - 62.8 °F 100% 30.11 in 1.0 mi Calm Calm - N/A   Overcast
7:15 AM 63.9 °F - 63.9 °F 100% 30.11 in 0.2 mi Calm Calm - N/A Fog Fog
7:35 AM 64.9 °F - 64.9 °F 100% 30.12 in 0.2 mi Calm Calm - N/A Fog Fog
7:55 AM 66.2 °F - 66.2 °F 100% 30.13 in 0.2 mi Calm Calm - N/A Fog Fog
8:15 AM 67.3 °F - 67.3 °F 100% 30.13 in 0.2 mi Calm Calm - N/A Fog Fog
8:35 AM 69.3 °F - 69.3 °F 100% 30.14 in 0.2 mi NNE 4.6 mph - N/A Fog Fog
8:55 AM 70.2 °F - 70.2 °F 100% 30.14 in 0.2 mi NE 4.6 mph - N/A Fog Fog
9:15 AM 70.9 °F - 70.9 °F 100% 30.14 in 0.5 mi NE 5.8 mph - N/A Fog Fog
9:35 AM 72.1 °F - 72.1 °F 100% 30.14 in 2.5 mi NE 5.8 mph - N/A   Overcast
9:55 AM 75.9 °F - 73.6 °F 92% 30.14 in 7.0 mi ENE 5.8 mph - N/A   Overcast
10:15 AM 76.6 °F - 73.2 °F 89% 30.14 in 7.0 mi NE 8.1 mph - N/A   Scattered Clouds
10:35 AM 77.7 °F - 73.2 °F 86% 30.14 in 10.0 mi ENE 9.2 mph - N/A   Clear
10:55 AM 78.8 °F - 73.6 °F 84% 30.14 in 10.0 mi ENE 9.2 mph - N/A   Clear
11:15 AM 79.5 °F - 74.5 °F 84% 30.13 in 10.0 mi ENE 6.9 mph - N/A   Clear
11:35 AM 80.4 °F 85.8 °F 75.0 °F 84% 30.13 in 10.0 mi ENE 6.9 mph - N/A   Clear
11:55 AM 81.3 °F 87.4 °F 74.8 °F 81% 30.13 in 10.0 mi East 8.1 mph - N/A   Clear
12:15 PM 81.7 °F 87.3 °F 73.9 °F 77% 30.13 in 10.0 mi ENE 8.1 mph - N/A   Clear
12:35 PM 83.1 °F 89.8 °F 74.1 °F 74% 30.12 in 10.0 mi NNE 5.8 mph - N/A   Clear
12:55 PM 83.3 °F 89.3 °F 73.2 °F 71% 30.12 in 10.0 mi ENE 4.6 mph - N/A   Clear
1:15 PM 83.7 °F 89.7 °F 72.9 °F 70% 30.11 in 10.0 mi Calm Calm - N/A   Clear
1:35 PM 84.2 °F 91.2 °F 73.9 °F 71% 30.10 in 10.0 mi NE 6.9 mph - N/A   Clear
1:55 PM 84.4 °F 92.0 °F 74.3 °F 72% 30.10 in 10.0 mi ENE 6.9 mph - N/A   Clear
2:15 PM 84.4 °F 90.6 °F 72.7 °F 68% 30.10 in 10.0 mi East 5.8 mph - N/A   Clear
2:35 PM 84.6 °F 88.8 °F 70.0 °F 61% 30.10 in 10.0 mi ENE 3.5 mph - N/A   Clear
2:55 PM 85.1 °F 89.8 °F 70.2 °F 61% 30.09 in 10.0 mi ENE 5.8 mph - N/A   Clear
3:15 PM 84.9 °F 89.1 °F 69.8 °F 60% 30.09 in 10.0 mi ENE 8.1 mph - N/A   Clear
3:35 PM 84.6 °F 88.2 °F 68.9 °F 59% 30.08 in 10.0 mi East 3.5 mph - N/A   Clear
3:55 PM 84.2 °F 87.1 °F 67.6 °F 57% 30.08 in 10.0 mi East 5.8 mph - N/A   Clear
4:15 PM 84.2 °F 87.9 °F 68.7 °F 60% 30.08 in 10.0 mi ENE 6.9 mph - N/A   Clear
4:35 PM 82.6 °F 86.1 °F 69.4 °F 64% 30.08 in 10.0 mi East 4.6 mph - N/A   Clear
4:55 PM 82.9 °F 87.2 °F 70.5 °F 66% 30.08 in 10.0 mi NE 8.1 mph - N/A   Clear
5:15 PM 80.6 °F 83.8 °F 69.6 °F 69% 30.08 in 10.0 mi ENE 5.8 mph - N/A   Clear
5:35 PM 80.8 °F 84.1 °F 69.8 °F 69% 30.08 in 10.0 mi NE 5.8 mph - N/A   Clear
5:55 PM 79.5 °F - 70.9 °F 75% 30.08 in 10.0 mi ENE 4.6 mph - N/A   Clear
6:15 PM 78.4 °F - 71.4 °F 79% 30.08 in 10.0 mi East 3.5 mph - N/A   Clear
6:35 PM 77.2 °F - 71.8 °F 83% 30.09 in 10.0 mi ENE 3.5 mph - N/A   Clear
6:55 PM 74.3 °F - 70.5 °F 88% 30.09 in 10.0 mi ENE 5.8 mph - N/A   Clear
7:15 PM 71.8 °F - 68.5 °F 89% 30.09 in 10.0 mi ENE 5.8 mph - N/A   Clear
7:35 PM 70.2 °F - 67.6 °F 92% 30.09 in 10.0 mi ENE 6.9 mph - N/A   Clear
7:55 PM 69.3 °F - 67.5 °F 94% 30.09 in 10.0 mi ENE 6.9 mph - N/A   Clear
8:15 PM 68.9 °F - 67.1 °F 94% 30.10 in 10.0 mi ENE 5.8 mph - N/A   Clear
8:35 PM 68.4 °F - 66.7 °F 95% 30.10 in 10.0 mi ENE 6.9 mph - N/A   Clear
8:50 PM 67.6 °F - 66.4 °F 96% 30.10 in 10.0 mi ENE 4.6 mph - N/A   Clear
9:15 PM 66.7 °F - 65.7 °F 96% 30.10 in 10.0 mi ENE 5.8 mph - N/A   Clear
9:35 PM 66.6 °F - 65.3 °F 96% 30.10 in 10.0 mi ENE 3.5 mph - N/A   Clear
9:55 PM 66.2 °F - 65.7 °F 98% 30.10 in 10.0 mi Calm Calm - N/A   Clear
10:15 PM 65.1 °F - 64.8 °F 99% 30.11 in 7.0 mi East 3.5 mph - N/A   Clear
10:35 PM 65.1 °F - 64.8 °F 99% 30.11 in 10.0 mi Calm Calm - N/A   Clear
10:55 PM 64.9 °F - 64.6 °F 99% 30.11 in 7.0 mi Calm Calm - N/A   Clear
11:15 PM 64.6 °F - 64.4 °F 99% 30.11 in 7.0 mi Calm Calm - N/A   Clear
11:35 PM 64.4 °F - 64.2 °F 99% 30.11 in 7.0 mi East 3.5 mph - N/A   Clear
11:55 PM 63.3 °F - 63.3 °F 100% 30.11 in 7.0 mi East 4.6 mph - N/A   Clear